This is the latest recevied weather packets stored in our database for station/object N7SWJ. If no packets are shown the sender has not sent any weather packets the latest 10 day(s).
| Time | Temp. | Humidity | Pressure | Rain* | Wind** | Luminosity | Snow |
|---|---|---|---|---|---|---|---|
| 1777991033 | 1.11° C | 95% | 1017.6 hPa | 0 mm | - | 57 W/m² | - |
| 1777990730 | 1.11° C | 95% | 1017.5 hPa | 0 mm | - | 54 W/m² | - |
| 1777990427 | 1.11° C | 95% | 1017.6 hPa | 0 mm | - | 49 W/m² | - |
| 1777989820 | 0.56° C | 94% | 1017.7 hPa | 0 mm | - | 33 W/m² | - |
| 1777989518 | 0.56° C | 94% | 1017.6 hPa | 0 mm | - | 31 W/m² | - |
| 1777989214 | 0.56° C | 94% | 1017.7 hPa | 0 mm | - | 28 W/m² | - |
| 1777988910 | 0.56° C | 94% | 1017.8 hPa | 0 mm | - | 28 W/m² | - |
| 1777988607 | 0.56° C | 94% | 1017.7 hPa | 0 mm | - | 23 W/m² | - |
| 1777988303 | 0.56° C | 94% | 1017.5 hPa | 1.27 mm | - | 18 W/m² | - |
| 1777988000 | 1.11° C | 94% | 1017.5 hPa | 1.27 mm | - | 13 W/m² | - |
| 1777987696 | 1.11° C | 94% | 1017.5 hPa | 1.78 mm | - | 12 W/m² | - |
| 1777987393 | 1.11° C | 94% | 1017.3 hPa | 3.05 mm | - | 15 W/m² | - |
| 1777987090 | 1.11° C | 94% | 1017.3 hPa | 3.05 mm | - | 11 W/m² | - |
| 1777986788 | 1.67° C | 94% | 1017 hPa | 4.83 mm | - | 10 W/m² | - |
| 1777986485 | 1.67° C | 94% | 1017.4 hPa | 4.32 mm | - | 7 W/m² | - |
| 1777986183 | 1.67° C | 94% | 1016.9 hPa | 3.05 mm | - | 6 W/m² | - |
| 1777985880 | 2.22° C | 94% | 1016.9 hPa | 3.56 mm | - | 7 W/m² | - |
| 1777985578 | 2.22° C | 94% | 1016.8 hPa | 3.05 mm | - | 6 W/m² | - |
| 1777985274 | 2.22° C | 94% | 1016.7 hPa | 3.05 mm | - | 4 W/m² | - |
| 1777984971 | 2.78° C | 94% | 1016.8 hPa | 1.78 mm | - | 3 W/m² | - |
| 1777984666 | 2.22° C | 94% | 1016.7 hPa | 1.27 mm | - | 4 W/m² | - |
| 1777984363 | 2.78° C | 94% | 1016.8 hPa | 1.27 mm | - | 4 W/m² | - |
| 1777984060 | 2.22° C | 94% | 1016.6 hPa | 1.78 mm | - | 4 W/m² | - |
| 1777983757 | 2.22° C | 94% | 1016.6 hPa | 1.78 mm | - | 4 W/m² | - |
| 1777983453 | 2.78° C | 94% | 1016.5 hPa | 0 mm | - | 4 W/m² | - |
* Rain latest hour (hover to see other rain measurements)
** Current wind speed in m/s (hover to see current wind gust speed)